Houston / Southwest Airport, TX

12:34 AM CDT on May 27, 2017 (GMT -0500)
Houston-Southwest

Weather History for KAXH - October, 2013

Change the Weather History Date:

Saturday, October 5, 2013

  Actual Average (KHOU) Record (KHOU)
Temperature  
Mean Temperature 80 °F -  
Max Temperature 92 °F 81 °F 94 °F (2006)
Min Temperature 69 °F 64 °F 41 °F (1975)
Cooling Degree Days 16    
Growing Degree Days 30 (Base 50)    
Moisture  
Dew Point 71 °F    
Average Humidity 78    
Maximum Humidity 100    
Minimum Humidity 40    
Precipitation  
Precipitation 0.00 in - - ()
Sea Level Pressure  
Sea Level Pressure 29.91 in    
Wind  
Wind Speed 1 mph (WNW)    
Max Wind Speed 14 mph    
Max Gust Speed 20 mph    
Visibility 8 miles    
Events Fog    
Averages and records for this station are not official NWS values.
T = Trace of Precipitation, MM = Missing Value Source: NWS Daily Summary

Daily Weather History Graph

Daily Weather History Graph

Search for Another Location

Airport or City:

Trip Planner

Search our weather history database for the weather conditions in past years. The results will help you decide how hot, cold, wet, or windy it might be!

Date:

Astronomy

Oct. 05, 2013 Rise Set
Actual Time 7:17 AM CDT 7:02 PM CDT
Civil Twilight 6:53 AM CDT 7:26 PM CDT
Nautical Twilight 6:26 AM CDT 7:53 PM CDT
Astronomical Twilight 5:58 AM CDT 8:21 PM CDT
Moon 7:52 AM CDT (10/5) 7:29 PM CDT (10/5)
Length of Visible Light 12h 32m
Length of Day
11h 44m
New Moon, 1% of the Moon is Illuminated
Oct 5
New Moon
Oct 11
First Quarter
Oct 18
Full
Oct 26
Last Quarter
Nov 3
New

Hourly Weather History & Observations

Time (CDT) Temp. Heat Index Dew Point Humidity Pressure Visibility Wind Dir Wind Speed Gust Speed Precip Events Conditions
12:15 AM 75.2 °F - 75.2 °F 100% 29.92 in 7.0 mi Calm Calm - N/A   Mostly Cloudy
12:35 AM 74.8 °F - 74.7 °F 99% 29.92 in 5.0 mi Calm Calm - N/A   Scattered Clouds
12:55 AM 73.4 °F - 73.4 °F 100% 29.91 in 0.5 mi Calm Calm - N/A Fog Fog
1:15 AM 73.4 °F - 73.4 °F 100% 29.91 in 1.5 mi Calm Calm - N/A   Overcast
1:35 AM 74.5 °F - 74.5 °F 100% 29.91 in 4.0 mi Calm Calm - N/A   Scattered Clouds
1:55 AM 73.6 °F - 73.6 °F 100% 29.91 in 0.8 mi Calm Calm - N/A   Mostly Cloudy
2:15 AM 72.9 °F - 72.9 °F 100% 29.91 in 3.0 mi Calm Calm - N/A   Scattered Clouds
2:35 AM 72.7 °F - 72.7 °F 100% 29.91 in 7.0 mi Calm Calm - N/A   Clear
2:55 AM 71.8 °F - 71.8 °F 100% 29.91 in 0.2 mi Calm Calm - N/A Fog Fog
3:15 AM 72.1 °F - 72.1 °F 100% 29.91 in 5.0 mi Calm Calm - N/A   Clear
3:35 AM 71.6 °F - 71.6 °F 100% 29.91 in 3.0 mi Calm Calm - N/A   Clear
3:55 AM 71.6 °F - 71.6 °F 100% 29.91 in 7.0 mi Calm Calm - N/A   Clear
4:15 AM 71.1 °F - 71.1 °F 100% 29.91 in 5.0 mi Calm Calm - N/A   Clear
4:35 AM 71.6 °F - 71.6 °F 100% 29.91 in 7.0 mi Calm Calm - N/A   Clear
4:55 AM 71.4 °F - 71.4 °F 100% 29.91 in 2.0 mi ENE 3.5 mph - N/A   Clear
5:15 AM 73.0 °F - 73.0 °F 100% 29.91 in 4.0 mi Calm Calm - N/A   Clear
5:35 AM 72.7 °F - 72.7 °F 100% 29.91 in 4.0 mi Calm Calm - N/A   Clear
5:55 AM 71.8 °F - 71.8 °F 100% 29.91 in 0.8 mi Calm Calm - N/A   Mist
6:15 AM 72.0 °F - 72.0 °F 100% 29.91 in 0.5 mi Calm Calm - N/A Fog Fog
6:35 AM 71.8 °F - 71.8 °F 100% 29.91 in 4.0 mi Calm Calm - N/A   Scattered Clouds
6:55 AM 70.7 °F - 70.7 °F 100% 29.92 in 1.0 mi Calm Calm - N/A   Mostly Cloudy
7:15 AM 70.2 °F - 70.2 °F 100% 29.92 in 0.2 mi Calm Calm - N/A Fog Fog
7:35 AM 69.8 °F - 69.8 °F 100% 29.91 in 0.2 mi Calm Calm - N/A Fog Fog
7:55 AM 71.2 °F - 71.2 °F 100% 29.92 in 5.0 mi Calm Calm - N/A   Scattered Clouds
8:15 AM 73.2 °F - 73.2 °F 100% 29.92 in 4.0 mi Calm Calm - N/A   Clear
8:35 AM 76.1 °F - 76.1 °F 100% 29.92 in 7.0 mi Calm Calm - N/A   Clear
8:55 AM 77.0 °F - 77.0 °F 100% 29.93 in 7.0 mi Calm Calm - N/A   Clear
9:15 AM 79.3 °F - 77.7 °F 95% 29.93 in 10.0 mi Calm Calm - N/A   Clear
9:35 AM 82.4 °F 90.9 °F 77.2 °F 84% 29.94 in 10.0 mi Calm Calm - N/A   Scattered Clouds
9:55 AM 81.9 °F 88.5 °F 75.2 °F 80% 29.94 in 10.0 mi Calm Calm - N/A   Mostly Cloudy
10:15 AM 82.9 °F 90.2 °F 75.2 °F 77% 29.94 in 10.0 mi Calm Calm - N/A   Overcast
10:35 AM 83.8 °F 91.4 °F 74.7 °F 74% 29.94 in 10.0 mi Calm Calm - N/A   Overcast
10:55 AM 83.5 °F 90.6 °F 74.5 °F 74% 29.94 in 10.0 mi Calm Calm - N/A   Mostly Cloudy
11:15 AM 85.8 °F 93.0 °F 73.4 °F 66% 29.94 in 10.0 mi Calm Calm - N/A   Scattered Clouds
11:35 AM 86.2 °F 93.4 °F 73.0 °F 65% 29.94 in 10.0 mi Calm Calm - N/A   Scattered Clouds
11:55 AM 86.7 °F 94.6 °F 73.8 °F 65% 29.94 in 10.0 mi SW 3.5 mph - N/A   Mostly Cloudy
12:15 PM 87.4 °F 94.4 °F 72.7 °F 61% 29.94 in 10.0 mi Calm Calm - N/A   Mostly Cloudy
12:35 PM 85.1 °F 91.1 °F 72.0 °F 65% 29.93 in 10.0 mi WNW 4.6 mph - N/A   Scattered Clouds
12:55 PM 89.1 °F 95.0 °F 70.9 °F 55% 29.92 in 10.0 mi Calm Calm - N/A   Scattered Clouds
1:15 PM 89.4 °F 94.8 °F 70.2 °F 53% 29.92 in 7.0 mi West 3.5 mph - N/A   Scattered Clouds
1:35 PM 90.3 °F 96.7 °F 71.1 °F 53% 29.90 in 10.0 mi WSW 9.2 mph - N/A   Scattered Clouds
1:55 PM 90.5 °F 94.6 °F 68.4 °F 48% 29.90 in 10.0 mi West 8.1 mph - N/A   Clear
2:15 PM 90.9 °F 94.8 °F 67.8 °F 47% 29.89 in 10.0 mi Calm Calm - N/A   Clear
2:35 PM 91.0 °F 95.2 °F 68.5 °F 47% 29.88 in 10.0 mi WNW 5.8 mph - N/A   Scattered Clouds
2:55 PM 91.4 °F 94.9 °F 67.5 °F 45% 29.87 in 10.0 mi West 5.8 mph - N/A   Clear
3:15 PM 91.6 °F 93.9 °F 65.8 °F 42% 29.87 in 10.0 mi WSW 4.6 mph - N/A   Scattered Clouds
3:35 PM 92.3 °F 95.1 °F 66.2 °F 42% 29.86 in 10.0 mi West 6.9 mph - N/A   Scattered Clouds
3:55 PM 91.8 °F 93.4 °F 64.6 °F 40% 29.86 in 10.0 mi West 6.9 mph - N/A   Clear
4:15 PM 91.9 °F 94.1 °F 65.5 °F 41% 29.86 in 10.0 mi West 6.9 mph - N/A   Clear
4:35 PM 91.6 °F 93.9 °F 65.5 °F 42% 29.85 in 10.0 mi West 8.1 mph - N/A   Scattered Clouds
4:55 PM 89.6 °F 91.8 °F 65.7 °F 45% 29.85 in 10.0 mi West 6.9 mph - N/A   Mostly Cloudy
5:15 PM 89.2 °F 91.3 °F 65.5 °F 45% 29.84 in 10.0 mi WNW 4.6 mph - N/A   Mostly Cloudy
5:35 PM 90.5 °F 93.3 °F 66.2 °F 45% 29.85 in 10.0 mi NW 4.6 mph - N/A   Mostly Cloudy
5:55 PM 89.8 °F 91.8 °F 64.9 °F 44% 29.85 in 10.0 mi NW 5.8 mph - N/A   Mostly Cloudy
6:15 PM 89.2 °F 92.0 °F 66.4 °F 47% 29.85 in 10.0 mi West 3.5 mph - N/A   Mostly Cloudy
6:35 PM 87.8 °F 90.0 °F 65.8 °F 48% 29.86 in 10.0 mi Calm Calm - N/A   Scattered Clouds
6:55 PM 86.4 °F 89.4 °F 67.6 °F 53% 29.87 in 10.0 mi Calm Calm - N/A   Mostly Cloudy
7:15 PM 83.5 °F 90.6 °F 74.5 °F 74% 29.87 in 10.0 mi ESE 3.5 mph - N/A   Mostly Cloudy
7:35 PM 81.9 °F 88.2 °F 74.8 °F 79% 29.88 in 10.0 mi SSE 3.5 mph - N/A   Scattered Clouds
7:55 PM 81.1 °F 87.0 °F 74.8 °F 81% 29.89 in 10.0 mi Calm Calm - N/A   Mostly Cloudy
8:15 PM 80.8 °F 86.3 °F 74.8 °F 82% 29.90 in 10.0 mi Calm Calm - N/A   Scattered Clouds
8:35 PM 79.7 °F - 74.8 °F 85% 29.91 in 10.0 mi Calm Calm - N/A   Clear
8:55 PM 80.6 °F 86.2 °F 75.2 °F 84% 29.91 in 10.0 mi Calm Calm - N/A   Clear
9:15 PM 79.2 °F - 76.1 °F 90% 29.92 in 7.0 mi Calm Calm - N/A   Clear
9:35 PM 77.9 °F - 75.6 °F 92% 29.93 in 10.0 mi Calm Calm - N/A   Clear
9:55 PM 78.1 °F - 76.1 °F 94% 29.93 in 10.0 mi West 4.6 mph - N/A   Scattered Clouds
10:15 PM 78.3 °F - 69.3 °F 74% 29.93 in 10.0 mi WNW 9.2 mph - N/A   Clear
10:35 PM 77.2 °F - 67.1 °F 71% 29.93 in 10.0 mi NW 6.9 mph - N/A   Clear
10:55 PM 75.7 °F - 65.3 °F 70% 29.94 in 10.0 mi NW 10.4 mph - N/A   Clear
11:15 PM 73.2 °F - 63.7 °F 72% 29.94 in 10.0 mi NW 13.8 mph 19.6 mph N/A   Clear
11:35 PM 71.6 °F - 62.4 °F 73% 29.94 in 10.0 mi NW 11.5 mph 16.1 mph N/A   Clear
11:55 PM 70.2 °F - 61.0 °F 73% 29.96 in 10.0 mi NW 11.5 mph - N/A   Clear